Regional Weather Roundup
Issued by NWS

Home | Current Version | Previous Version | Graphics & Text | Print | Product List | Glossary On
Versions: 1 2 3 4 5 6 7 8 9 10 11 12 13 14 15 16 17 18 19 20 21 22 23 24 25 26 27 28 29 30 31 32 33 34 35 36 37 38 39 40 41 42 43 44 45 46 47 48 49 50
869
ASUS45 KABQ 092210
RWRNM
NEW MEXICO REGIONAL WEATHER ROUNDUP
NATIONAL WEATHER SERVICE ALBUQUERQUE NM
300 PM MST TUE FEB 09 2016

NOTE: "FAIR" MEANS FEW OR NO CLOUDS BELOW 12,000 FEET AGL WITH NO
       SIGNIFICANT WEATHER OR OBSTRUCTIONS TO VISION.

      THIS PRODUCT IS RELEASED AS TWO VERSIONS.  ONE VERSION NEAR
      THE TOP OF THE HOUR CONTAINING PRELIMINARY DATA FROM ALBUQUERQUE
      AND OTHER STATIONS.  A FINAL VERSION WITH ADDITIONAL DATA IS
      ISSUED ABOUT 10 MINUTES AFTER THE HOUR.

NMZ501-503-504-510>518-092300-
NORTHWEST PLATEAU/NORTHCENTRAL MOUNTAINS

CITY           SKY/WX    TMP DP  RH WIND       PRES   REMARKS
FARMINGTON     SUNNY     50  21  32 W5        30.36F
LOS ALAMOS     SUNNY     53  15  22 E3        30.37S
SANTA FE       SUNNY     57  19  22 SW10      30.32S
TAOS           SUNNY     48  10  21 N5        30.37S
ANGEL FIRE     FAIR      44  10  25 SW3       30.37S

$$
NMZ402-403-502-505>509-092300-
WESTCENTRAL MOUNTAINS/SOUTHWEST MOUNTAINS

CITY           SKY/WX    TMP DP  RH WIND       PRES   REMARKS
GALLUP         SUNNY     57  14  18 N6        30.37F
GRANTS         SUNNY     59   9  13 N14       30.37S
SILVER CITY      N/A     61  16  17 S6        30.33F

$$
NMZ407-409-411-412-092300-
SOUTHERN DESERTS

CITY           SKY/WX    TMP DP  RH WIND       PRES   REMARKS
LORDSBURG      FAIR      64  19  17 SE7       30.28S
DEMING         SUNNY     65  17  15 VRB3      30.29F
LAS CRUCES     SUNNY     62  16  16 S3        30.31F
ALAMOGORDO     SUNNY     63  18  17 SE5       30.29F
T OR C         SUNNY     63  17  17 SE5       30.28F

$$
NMZ519>523-092300-
CENTRAL VALLEYS/CENTRAL HIGHLANDS

CITY           SKY/WX    TMP DP  RH WIND       PRES   REMARKS
ALBUQUERQUE    SUNNY     59  21  23 CALM      30.32F
DOUBLE EAGLE   SUNNY     59  21  23 NW3       30.33F
MORIARTY ARPT  FAIR      60  12  15 W6        30.32F
CLINES CORNERS SUNNY     54  18  24 W7        30.33S
BELEN          FAIR      60  19  20 NE5       30.32S
SOCORRO        FAIR      61  18  19 N3        30.30F

$$
NMZ524>526-539-540-092300-
SOUTHCENTRAL MOUNTAINS

CITY           SKY/WX    TMP DP  RH WIND       PRES   REMARKS
RUIDOSO        SUNNY     57  12  17 N8        30.35S

$$
NMZ527>531-092300-
NORTHEAST HIGHLANDS/NORTHEAST PLAINS

CITY           SKY/WX    TMP DP  RH WIND       PRES   REMARKS
LAS VEGAS      SUNNY     55  17  22 S12       30.32S
RATON          SUNNY     59  10  14 NE8       30.28S
CLAYTON        SUNNY     61  14  16 VRB5      30.28S

$$
NMZ532>537-092300-
EASTCENTRAL PLAINS

CITY           SKY/WX    TMP DP  RH WIND       PRES   REMARKS
TUCUMCARI      SUNNY     64  13  13 S6        30.26F
CANNON AFB     SUNNY     61  16  17 VRB5      30.29F
CLOVIS AIRPORT SUNNY     61  18  18 W8        30.30F

$$
NMZ028-029-538-092300-
SOUTHEAST PLAINS

CITY           SKY/WX    TMP DP  RH WIND       PRES   REMARKS
ROSWELL        SUNNY     62  17  17 S8        30.28F
ARTESIA        SUNNY     61  21  21 CALM      30.29S
CARLSBAD       SUNNY     63  20  19 S12       30.27F
HOBBS          SUNNY     61  18  18 SW6       30.30F


$$




USA.gov is the U.S. government's official web portal to all federal, state and local government web resources and services.